Location: Central Falls
(41.8900°N, 71.3929°W)
Time: 11:58:30
(UTC+00:00)

A-11 Canister half - Pass Details

Date: 12 December 2023
Orbit: 1512 x 1687 km, 47.2° (Epoch: 20 February)

Event Time Altitude Azimuth Distance (km) Brightness Sun altitude
Rises 05:10:03 0° 267° (W) 4,717 - -70.1°
Reaches altitude 10° 05:13:07 10° 270° (W) 3,755 - -69.9°
Maximum altitude 05:22:38 66° 352° (N) 1,728 - -69.1°
Drops below altitude 10° 05:32:32 10° 75° (ENE) 3,897 - -68.1°
Exits shadow 05:34:35 - 77° (ENE) 4,528 11.7 -67.9°
Sets 05:35:47 0° 78° (ENE) 4,903 11.9 -67.8°
